Featured Flight

MET3002 - Chicago to Detroit

Boeing 737-200
711MT
0 hrs 45 mins
199 nm
Scheduled - Daily

Bid/PiRep Status

Bid was submitted on December 28th, 2016 13:11 UTC.
PiRep # 74494: Approved by Dave Nichols on December 30th, 2016 2:54 UTC

Departure

Departing from
Chicago (MDW)
Departure gate
Scheduled Departure
GMT 1330
Local 0830
METAR KMDW 232253Z 10010KT 10SM FEW065 32/19 A3003 RMK AO2 SLP156 T03170194
TAF KMDW 232104Z 2321/2418 09008KT P6SM FEW060 FM240100 14005KT P6SM SKC

Route Map

Planning Resources

KMDW-GIJ-LFD-DXQ-MDTW
CISRO2.GIJ LFD.MIZAR3
KMDW MDW4 LEWKE GIJ LFD MIZAR3 KDTW
KMDW GIJ J554 CRL KDTW
KMDW-GIJ-BENJO-CRL-KDTW
Route:
OFP Layout:
Units:
Detailed Navlog:
ETOPS Planning:
Plan Stepclimbs:
Runway Analysis:
Include NOTAMS:
FIR NOTAMS:
Flight Maps:

Popularity

Hub Current Bids PiReps this month Total PiReps
KMCI 0 0 3
KLAX 0 0 0
KBOS 0 0 0